Location: Rosenheim
(47.8408°N, 12.2113°E)
Time: 16:46:02
(UTC+01:00)

ISS - Pass Details

Date: 18 November 2017
Orbit: 402 x 407 km, 51.6° (Epoch: 19 November)

Event Time Altitude Azimuth Distance (km) Brightness Sun altitude
Exits shadow 05:31:22 13° 199° (SSW) 1,284 -1.4 -18.3°
Drops below altitude 10° 05:32:08 10° 186° (S) 1,448 -1.0 -18.1°
Sets 05:34:49 0° 162° (SSE) 2,301 0.4 -17.7°
